AirNav   Air Wisconsin Up To $57,000 Bonus
 
 1281 users online  

09Y Wipline Seaplane Base
Inver Grove Hgts, Minnesota, USA

GOING TO INVER GROVE HGTS?


FAA INFORMATION EFFECTIVE 08 OCTOBER 2020

Location

FAA Identifier: 09Y
Lat/Long: 44-49-39.2000N 093-00-31.4000W
44-49.653333N 093-00.523333W
44.8275556,-93.0087222
(estimated)
Elevation: 687 ft. / 209 m (estimated)
Variation: 03E (1985)
From city: 2 miles SE of INVER GROVE HGTS, MN
Time zone: UTC -5 (UTC -6 during Standard Time)
Zip code: 55077

Seaplane Base Operations

Seaplane Base use: Open to the public
Activation date: 07/1972
Control tower: no
ARTCC: MINNEAPOLIS CENTER
FSS: PRINCETON FLIGHT SERVICE STATION
NOTAMs facility: PNM (NOTAM-D service available)
Attendance: CONTINUOUS
Wind indicator: yes
Segmented circle: no

Seaplane Base Communications

CTAF: 122.9
WX AWOS-3 at SGS (2.1 nm NW): 119.425 (651-457-8120)
WX ASOS at STP (7 nm N): 118.35 (651-312-8888)
WX ASOS at MSP (10 nm W): 135.35 (612-713-4174)
WX AWOS-3 at 21D (12 nm NE): 120.075 (651-779-5949)
WX AWOS-3 at LVN (15 nm SW): 118.0 (952-469-5850)
WX ASOS at FCM (19 nm W): 124.9 (952-941-4156)

Nearby radio navigation aids

VOR radial/distance  VOR name  Freq  Var
MSPr111/10.5MINNEAPOLIS VOR/DME115.3002E
FGTr026/13.9FARMINGTON VORTAC115.7006E
FCMr089/18.5FLYING CLOUD VOR/DME117.7001E
GEPr135/24.6GOPHER VORTAC117.3006E

 
NDB name  Hdg/Dist  Freq  Var  ID
HOPEY223/4.040003EPPI .--. .--. ..

Seaplane Base Services

Fuel available: 100LL
Parking: tiedowns
Airframe service: MINOR
Powerplant service: MINOR
Bottled oxygen: NONE
Bulk oxygen: NONE

Runway Information

Runway 17W/35W

Dimensions: 8000 x 500 ft. / 2438 x 152 m
Surface: water
RUNWAY 17W  RUNWAY 35W
Latitude: 44-50.293825N44-49.011545N
Longitude: 093-00.733782W093-00.312452W
Elevation: 687.0 ft.687.0 ft.
Traffic pattern: leftright
Runway heading: 164 magnetic, 167 true344 magnetic, 347 true

Seaplane Base Ownership and Management from official FAA records

Ownership: Privately-owned
Owner: ROBERT WIPLINGER
9100 RIVER RD
INVER GROVE HGTS, MN 55076
Phone 612-451-1205
Manager: ROBERT WIPLINGER
9100 RIVER RD
INVER GROVE HTS, MN 55076
Phone 612--286-6612

Seaplane Base Operational Statistics

Aircraft based on the field: 3
Single engine airplanes: 3
    
Aircraft operations: 230/year *
87% local general aviation
13% transient general aviation
* for 12-month period ending 12 October 2018

Additional Remarks

RIVER CHNL MRKD BY BUOYS.
FLOATING DEBRIS ON RIVER AT ALL TIMES.
FOR CD CTC MINNEAPOLIS ARTCC AT 651-463-5588.

Instrument Procedures

There are no published instrument procedures at 09Y.

Some nearby airports with instrument procedures:

KSGS - South St Paul Municipal Airport-Richard E Fleming Field (2 nm NW)
KSTP - St Paul Downtown Airport Holman Field (7 nm N)
KMSP - Minneapolis-St Paul International/Wold-Chamberlain Airport (10 nm W)
21D - Lake Elmo Airport (12 nm NE)
KLVN - Airlake Airport (15 nm SW)
KFCM - Flying Cloud Airport (19 nm W)
 
Loc | Ops | Rwys | IFR | FBO | Links
Com | Nav | Svcs | Stats | Notes
Area around 09Y (Wipline Seaplane Base)
 
Road maps at: MapQuest Bing Google
 
Aerial photo
No photo
 
Sectional chart

 
Airport distance calculator
Flying to Wipline Seaplane Base? Find the distance to fly.

From to 09Y

Sunrise and sunset
Times for 22-Oct-2020
 Local
(UTC-5)
 Zulu
(UTC)
Morning civil twilight07:0912:09
Sunrise07:3912:39
Sunset18:1423:14
Evening civil twilight18:4423:44

Current date and time
Zulu (UTC)  22-Oct-2020 21:46:47
Local (UTC-5)  22-Oct-2020 16:46:47
 
METAR
KSGS 
6nm W 
222135Z AUTO 03009G14KT 4SM BKN008 OVC015 02/01 A3006 RMK AO2 LTG DSNT E T00150010 PWINO
KSTP 
7nm N 
222137Z AUTO 04013KT 3SM BR BKN011 OVC024 02/00 A3008 RMK AO2 RAE33UPB12E22 P0001 T00220000
KMSP 
10nm W 
222053Z 03011KT 2 1/2SM -DZ BR BKN008 OVC014 01/01 A3007 RMK AO2 RAE48DZB48 SLP191 P0003 60004 T00110006 55012
K21D 
12nm NE 
222135Z AUTO 03003KT 2 1/2SM UP OVC005 01/00 A3007 RMK AO2 LTG DSNT E
KLVN 
15nm SW 
222135Z AUTO 03013KT 2 1/2SM -RA BKN009 OVC014 01/01 A3004 RMK AO2
KFCM 
19nm W 
222100Z 02012G19KT 2SM -RA BR BKN007 OVC012 01/00 A3004 RMK AO2 CIG 005V011 P0000 T00110000
TAF
KMSP 
10nm W 
221720Z 2218/2324 05014G25KT 3SM -RASN BR BKN010 OVC035 FM222000 02015G23KT 2SM -DZ BR OVC005 FM230000 01013G20KT 5SM -DZ BR OVC007 FM230300 36012G19KT P6SM OVC012 FM231300 33011KT P6SM BKN013 FM232300 30009KT P6SM SCT120
NOTAMs
Click for the latest NOTAMs
NOTAMs are issued by the DoD/FAA and will open in a separate window not controlled by AirNav.

 

 
 

FBO, Fuel Providers, and Aircraft Ground Support

  
 Business Name 
 
 Contact 
 
 Services / Description 
 
Fuel Prices
 
Comments
  
Wipaire 651-451-1205
no information available

If you are affiliated with Wipaire and would like to show here your services, contact info, web link, logo, and more, click here
100LL
PS $4.74 
 Updated 16-Jul-2015
 
   write
PS=Pump service
Update Fuel Prices
 

Would you like to see your business listed on this page?

 If your business provides an interesting product or service to pilots, flight crews, aircraft, or users of the Wipline Seaplane Base, you should consider listing it here.  To start the listing process, click on the button below
 
Add a business
 

Other Pages about Wipline Seaplane Base

Update a link
 
Copyright © AirNav, LLC. All rights reserved. Privacy Policy  Contact